PROBA-1 1 26958U 01049B 26257.80112704 .00000395 00000+0 29567-4 0 9998 2 26958 97.9611 269.4961 0054351 178.1040 182.0404 15.07797053357122 CUTE-1 (CO-55) 1 27844U 03031E 26257.46130458 .00000192 00000+0 10189-3 0 9998 2 27844 98.6770 264.9125 0008426 289.0249 71.0017 14.24381067204386 CUBESAT XI-IV (CO-57) 1 27848U 03031J 26257.49476793 .00000148 00000+0 84046-4 0 9995 2 27848 98.6802 264.5861 0008535 310.1780 49.8651 14.23659826204080 APRIZESAT 4 1 35684U 09041D 26257.46614752 .00000514 00000+0 67694-4 0 9992 2 35684 98.1346 334.5374 0043864 33.5344 326.8632 14.83989266924602 APRIZESAT 3 1 35686U 09041F 26257.70539227 .00001264 00000+0 11299-3 0 9996 2 35686 98.2182 55.3003 0062279 130.9324 229.7311 14.96451304929769 PROBA-2 1 36037U 09059B 26257.44140612 .00000104 00000+0 34663-4 0 9996 2 36037 98.2482 79.5813 0013466 10.6337 349.5142 14.54893682894501 APRIZESAT 5 1 37792U 11044E 26257.78931164 .00000765 00000+0 10329-3 0 9994 2 37792 98.2475 193.3841 0053407 74.4890 286.2210 14.81208024812052 APRIZESAT 6 1 37793U 11044F 26257.25099544 .00000458 00000+0 71855-4 0 9995 2 37793 98.2284 169.5390 0043420 159.2112 353.4234 14.77021385810293 PROBA-V 1 39159U 13021A 26257.38020659 .00000031 00000+0 31665-4 0 9997 2 39159 98.3702 231.6293 0003225 220.0981 139.9961 14.23612841693804 APRIZESAT 7 1 39416U 13066A 26257.30461637 .00000869 00000+0 91084-4 0 9999 2 39416 97.7797 209.2911 0034140 276.3622 83.3709 14.91747117694512 APRIZESAT 8 1 39425U 13066K 26257.32592225 .00000888 00000+0 10168-3 0 9993 2 39425 97.8293 203.5860 0045677 354.5808 5.4908 14.87793278692929 BUGSAT-1 (TITA) 1 40014U 14033E 26257.80166899 .00004320 00000+0 22465-3 0 9999 2 40014 98.0432 355.6432 0026319 233.0903 126.7917 15.16366329669417 SAUDISAT 4 1 40016U 14033G 26257.86054066 .00000593 00000+0 84495-4 0 9999 2 40016 97.7720 40.9695 0045631 140.2113 220.2461 14.79639921659333 APRIZESAT 9 1 40018U 14033J 26257.32273912 .00000416 00000+0 68787-4 0 9995 2 40018 97.9187 28.4083 0064623 273.8477 85.5345 14.74304826656691 APRIZESAT 10 1 40019U 14033K 26257.58008552 .00000270 00000+0 50399-4 0 9998 2 40019 97.9764 22.6013 0078378 349.3742 10.5805 14.70965567655394 TECHDEMOSAT-1 (TDS-1) 1 40076U 14037H 26257.71927311 .00005979 00000+0 32969-3 0 9996 2 40076 98.3877 258.9206 0005294 341.3852 18.7183 15.14413531661772 TECHNOSAT 1 42829U 17042E 26257.19807953 .00002284 00000+0 16292-3 0 9991 2 42829 97.4394 51.5594 0018199 146.3560 213.8826 15.05392742500097 FLYING LAPTOP 1 42831U 17042G 26257.89208912 .00001988 00000+0 15742-3 0 9990 2 42831 97.5006 50.2130 0016406 174.0334 186.1089 15.01590813499915 HAWK-A 1 43765U 18099H 26257.37964618 .00004760 00000+0 18713-3 0 9997 2 43765 97.3818 308.4692 0033073 333.6044 26.3508 15.25647529426691 HAWK-B 1 43794U 18099AN 26257.11652246 .00004832 00000+0 20144-3 0 9993 2 43794 97.3870 307.4327 0030989 354.0978 5.9890 15.23731361426571 HAWK-C 1 43799U 18099AT 26257.86774564 .00007069 00000+0 24572-3 0 9992 2 43799 97.3792 310.3186 0038266 329.6593 30.2432 15.29341770427618 SALSAT 1 46495U 20068K 26257.26571775 .00005740 00000+0 19484-3 0 9990 2 46495 97.8883 265.8489 0009220 1.1573 358.9687 15.30910957328981 HAWK-2C 1 47502U 21006CT 26257.58217436 .00005046 00000+0 14792-3 0 9995 2 47502 97.2195 300.1298 0005267 229.4560 130.6226 15.35625431313219 HAWK-2A 1 47505U 21006CW 26257.06125880 .00005054 00000+0 14799-3 0 9998 2 47505 97.2237 300.3515 0004705 236.9737 123.1055 15.35662608313133 HAWK-2B 1 47508U 21006CZ 26257.57069272 .00005472 00000+0 15920-3 0 9990 2 47508 97.2109 299.0448 0005228 231.5200 128.5576 15.35827735313210 HAWK-3B 1 48931U 21059BE 26257.36647962 .00051561 00000+0 31252-3 0 9990 2 48931 97.6553 103.0090 0003349 9.8927 350.2404 15.77414495291871 HAWK-3C 1 48948U 21059BX 26257.36615410 .00048328 00000+0 29310-3 0 9990 2 48948 97.6652 108.8392 0003701 11.6177 348.5173 15.77411730291879 HAWK-3A 1 48957U 21059CG 26257.36605053 .00050799 00000+0 30797-3 0 9998 2 48957 97.6604 105.9749 0003735 12.5622 347.5735 15.77410253291874 HAWK-5C 1 52754U 22057Y 26257.42296364 .00013898 00000+0 21449-3 0 9998 2 52754 97.6683 63.0981 0004816 102.4923 257.6869 15.54252155240195 HAWK-5B 1 52756U 22057AA 26257.42281464 .00015002 00000+0 23138-3 0 9991 2 52756 97.6697 61.4631 0005549 97.4151 262.7732 15.54246456240199 HAWK-5A 1 52757U 22057AB 26257.42262136 .00015557 00000+0 23983-3 0 9990 2 52757 97.6693 62.2895 0005448 100.5387 259.6480 15.54251984240199 HAWK-6B 1 55324U 23011A 26257.87089995 .00004566 00000+0 19472-3 0 9999 2 55324 40.4973 188.6957 0003430 292.9498 67.0949 15.23602750201521 HAWK-6C 1 55326U 23011C 26257.14924168 .00003883 00000+0 16683-3 0 9993 2 55326 40.4964 189.7379 0004365 282.1255 77.9066 15.23599909201423 HAWK-6A 1 55327U 23011D 26257.87028501 .00004704 00000+0 20035-3 0 9999 2 55327 40.4973 187.1604 0003961 281.5335 78.5030 15.23605873201538 HAWK-7A 1 56191U 23054P 26257.12075253 .00004876 00000+0 18020-3 0 9991 2 56191 97.2548 142.1783 0004746 83.9687 276.2093 15.28165513190609 HAWK-7B 1 56193U 23054R 26257.44808740 .00004506 00000+0 16673-3 0 9995 2 56193 97.2571 140.7919 0003820 91.3400 268.8278 15.28169029190653 HAWK-7C 1 56200U 23054Y 26257.12055583 .00004879 00000+0 18034-3 0 9994 2 56200 97.2550 141.2142 0004097 82.7839 277.3867 15.28167096190606